This is the latest recevied weather packets stored in our database for station/object KM4KMS. If no packets are shown the sender has not sent any weather packets the latest 10 day(s).
| Time | Temp. | Humidity | Pressure | Rain* | Wind** | Luminosity | Snow |
|---|---|---|---|---|---|---|---|
| 1778278889 | 21.11° C | 45% | 1009 hPa | 0 mm | - | 248 W/m² | - |
| 1778278585 | 21.11° C | 45% | 1009.2 hPa | 0 mm | - | 240 W/m² | - |
| 1778278281 | 21.11° C | 45% | 1009 hPa | 0 mm | - | 269 W/m² | - |
| 1778277978 | 21.11° C | 44% | 1009.1 hPa | 0 mm | - | 321 W/m² | - |
| 1778277674 | 21.11° C | 44% | 1009.2 hPa | 0 mm | - | 331 W/m² | - |
| 1778277371 | 21.11° C | 45% | 1009.3 hPa | 0 mm | - | 333 W/m² | - |
| 1778277068 | 21.11° C | 45% | 1009.2 hPa | 0 mm | - | 303 W/m² | - |
| 1778276765 | 21.11° C | 43% | 1009.4 hPa | 0 mm | - | 314 W/m² | - |
| 1778276461 | 21.67° C | 44% | 1009.3 hPa | 0 mm | - | 318 W/m² | - |
| 1778276158 | 21.11° C | 45% | 1009.2 hPa | 0 mm | - | 335 W/m² | - |
| 1778275854 | 21.67° C | 45% | 1009.2 hPa | 0 mm | - | 395 W/m² | - |
| 1778275551 | 21.67° C | 45% | 1009.3 hPa | 0 mm | - | 393 W/m² | - |
| 1778275247 | 21.67° C | 43% | 1009.5 hPa | 0 mm | - | 412 W/m² | - |
| 1778274943 | 21.67° C | 45% | 1009.3 hPa | 0 mm | - | 406 W/m² | - |
| 1778274640 | 21.67° C | 47% | 1009.6 hPa | 0 mm | - | 435 W/m² | - |
| 1778274336 | 21.67° C | 44% | 1009.7 hPa | 0 mm | - | 440 W/m² | - |
| 1778274034 | 21.11° C | 45% | 1009.7 hPa | 0 mm | - | 449 W/m² | - |
| 1778273731 | 21.11° C | 45% | 1009.6 hPa | 0 mm | - | 423 W/m² | - |
| 1778273427 | 21.11° C | 44% | 1009.7 hPa | 0 mm | - | 432 W/m² | - |
| 1778273124 | 21.67° C | 44% | 1009.5 hPa | 0 mm | - | 463 W/m² | - |
| 1778272820 | 21.67° C | 47% | 1009.8 hPa | 0 mm | - | 457 W/m² | - |
| 1778272516 | 21.11° C | 46% | 1009.8 hPa | 0 mm | - | 490 W/m² | - |
| 1778272212 | 21.67° C | 43% | 1010.1 hPa | 0 mm | - | 478 W/m² | - |
| 1778271909 | 21.11° C | 45% | 1010.4 hPa | 0 mm | - | 482 W/m² | - |
| 1778271606 | 21.11° C | 45% | 1010.5 hPa | 0 mm | - | 503 W/m² | - |
* Rain latest hour (hover to see other rain measurements)
** Current wind speed in m/s (hover to see current wind gust speed)